Regional Weather Roundup
Issued by NWS

Home | Current Version | Previous Version | Text Only | Print | Product List | Glossary Off
Versions: 1 2 3 4 5 6 7 8 9 10 11 12 13 14 15 16 17 18 19 20 21 22 23 24 25 26 27 28 29 30 31 32 33 34 35 36 37 38 39 40 41 42 43 44 45 46 47 48 49 50

000
ASUS43 KMPX 222310
RWRMN
WEATHER ROUNDUP FOR MINNESOTA
NATIONAL WEATHER SERVICE TWIN CITIES/CHANHASSEN MN
600 PM CDT TUE APR 22 2014


NOTE: "FAIR" INDICATES FEW OR NO CLOUDS BELOW 12,000 FEET WITH NO
SIGNIFICANT WEATHER AND/OR OBSTRUCTIONS TO VISIBILITY. N/A MEANS
CURRENT SKY AND/OR WEATHER CONDITIONS ARE NOT AVAILABLE.

MNZ060>063-068>070-230000-
   Twin Cities Metro

CITY           SKY/WX    TMP DP  RH WIND       PRES   REMARKS
TWIN CITIES    MOSUNNY   57  26  30 N9        30.05S
ST PAUL        MOSUNNY   57  26  30 N9        30.06S
CRYSTAL        SUNNY     58  25  28 N7        30.04S
EDEN PRAIRIE   SUNNY     58  29  33 N7        30.04R
LAKEVILLE      MOSUNNY   55  27  33 E6        30.04S
SOUTH ST PAUL  MOSUNNY   59  26  28 N7        30.05S
LAKE ELMO      FAIR      55  28  35 N10G16    30.06S
$$
MNZ001>005-007-008-013>017-022>024-027-028-230000-
   Northwest Minnesota

CITY           SKY/WX    TMP DP  RH WIND       PRES   REMARKS
BEMIDJI        SUNNY     53  23  30 NE6       30.04F
HALLOCK        CLOUDY    59  34  38 S3        30.01S
ROSEAU         SUNNY     54  28  37 E12       30.05F
WARROAD        SUNNY     46  21  36 E9        30.08S
THIEF RVR FALL SUNNY     55  30  38 NE7       30.04S
CROOKSTON      SUNNY     61  30  31 E8        30.01F
FOSSTON        SUNNY     61  27  27 E8        30.03S
DETROIT LAKES  SUNNY     59  27  29 E5        30.02S
MOORHEAD       MOSUNNY   63  28  27 SE10      30.00S
PARK RAPIDS    SUNNY     58  25  28 VRB5      30.02S
$$
MNZ006-009>011-018-025>026-230000-
   North Central Minnesota

CITY           SKY/WX    TMP DP  RH WIND       PRES   REMARKS
BAUDETTE       SUNNY     52  18  26 NE6       30.07F
FLAG ISLAND    SUNNY     37  25  60 S6        30.08S
INTL FALLS     SUNNY     50  20  30 E6        30.07S
WASKISH        SUNNY     54  25  32 CALM      30.06S
BIG FORK       SUNNY     55  19  24 NW7       30.05F
LONGVILLE      SUNNY     55  21  26 NE3       30.05S
GRAND RAPIDS   SUNNY     54  19  26 NE7       30.06S
CRANE LAKE     SUNNY     52  19  28 NW7       30.09S
ORR            SUNNY     52  16  24 NW3       30.05S
COOK           SUNNY     52  19  28 N3        30.07S
$$
MNZ012-019>021-037-230000-
   Northeast Minnesota

CITY           SKY/WX    TMP DP  RH WIND       PRES   REMARKS
DULUTH         SUNNY     52  22  30 VRB5      30.05S
ELY            SUNNY     48  18  29 NW8       30.05F
HIBBING        SUNNY     54  18  24 N7        30.05S
EVELETH        SUNNY     52  19  28 N8        30.06S
DULUTH HARBOR  SUNNY     52  21  30 CALM      30.07S
TWO HARBORS    SUNNY     52  23  32 N5        30.04S
SILVER BAY     SUNNY     45  28  53 SE8       30.04S
GRAND MARAIS     N/A     38  31  76 E5        30.10R
G MARAIS ARPRT SUNNY     41  21  45 SE6       30.06R
$$
MNZ029>031-032-039>041-046>048-054>057-064-230000-
   West Central Minnesota

CITY           SKY/WX    TMP DP  RH WIND       PRES   REMARKS
FERGUS FALLS   SUNNY     61  27  27 SE10      29.98S
WHEATON        MOSUNNY   64  37  36 SE13      30.01S
MORRIS         PTSUNNY   63  32  31 SE10      30.01S
ALEXANDRIA     SUNNY     58  32  37 E7        30.03F
ELBOW LAKE     FAIR      60  32  34 SE6       30.01S
WADENA         MOSUNNY   57  30  35 E5        30.02S
GLENWOOD       MOSUNNY   59  32  36 E6        30.04S
APPLETON       PTSUNNY   63  28  27 SE6       30.00F
BENSON         PTSUNNY   63  32  31 S6        30.03S
ORTONVILLE     PTSUNNY   63  30  29 SE14      29.99S
MADISON        PTSUNNY   66  30  26 SE10      30.00S
WILLMAR        FAIR      59  30  33 CALM      30.05S
$$
MNZ033>034-036-042>043-049>051-058-059-230000-
   Central Minnesota

CITY           SKY/WX    TMP DP  RH WIND       PRES   REMARKS
ST CLOUD       SUNNY     59  27  29 N5        30.04F
SAUK CENTRE    FAIR      57  30  35 E3        30.04S
PAYNESVILLE    MOSUNNY   57  30  35 SE7       30.04F
AITKIN         SUNNY     57  10  15 NE5       30.03S
PINE RIVER     SUNNY     54  28  37 N8        30.08S
BRAINERD       SUNNY     60  21  22 N9        30.05F
STAPLES        MOSUNNY   57  23  26 N3        30.02F
LONG PRAIRIE   FAIR      57  28  33 CALM      30.04S
LITTLE FALLS   MOSUNNY   55  27  33 NE5       30.04S
LITCHFIELD     MOSUNNY   57  32  38 NE7       30.05S
BUFFALO        SUNNY     57  27  31 N6        30.05S
MAPLE LAKE     SUNNY     58  31  35 N6        30.05F
$$
MNZ037-044-045-052-053-230000-
   East Central Minnesota

CITY           SKY/WX    TMP DP  RH WIND       PRES   REMARKS
PRINCETON      MOSUNNY   57  27  30 N14       30.05F
MORA           MOSUNNY   55  23  28 E6        30.06S
CAMBRIDGE      MOSUNNY   57  36  44 CALM      30.03F
RUSH CITY      MOSUNNY   55  22  28 N10       30.06S
MOOSE LAKE     SUNNY     54  23  30 N5        30.03F
HINCKLEY       FAIR      55  25  30 N8        30.06S
CLOQUET        SUNNY     54  16  22 N5        30.05F
MCGREGOR       SUNNY     54  21  28 NE8       30.05F
$$
MNZ071>073-080-081-089-090-097-098-230000-
   Southwest Minnesota

CITY           SKY/WX    TMP DP  RH WIND       PRES   REMARKS
MONTEVIDEO     PTSUNNY   63  34  34 S10       30.02F
GRANITE FALLS  PTSUNNY   61  34  36 E10       30.03F
CANBY          PTSUNNY   63  32  31 E12       30.00S
MARSHALL       MOSUNNY   63  30  29 E10       29.99F
REDWOOD FALLS  MOSUNNY   61  31  32 E7        30.03S
OLIVIA         PTSUNNY   59  36  41 E6        30.04R
PIPESTONE      CLOUDY    63  28  27 S10       29.98F
WINDOM         SUNNY     63  28  27 E5        30.02S
WORTHINGTON    MOSUNNY   63  28  27 SE5       30.03F
JACKSON        SUNNY     63  27  25 S3        30.03S
TRACY          MOSUNNY   63  32  31 E10       30.01F
SLAYTON        PTSUNNY   63  29  27 E7        30.01S
$$
MNZ065>067-074>077-082>085-091>093-230000-
   South Central Minnesota

CITY           SKY/WX    TMP DP  RH WIND       PRES   REMARKS
MANKATO        MOSUNNY   57  28  33 E10       30.05F
NEW ULM        MOSUNNY   59  32  36 NE6       30.04S
ST JAMES       SUNNY     63  30  29 N7        30.04S
FAIRMONT       SUNNY     61  28  29 CALM      30.05S
GLENCOE        MOSUNNY   58  26  28 E5        30.05S
FARIBAULT      SUNNY     61  21  21 NE8       30.05S
OWATONNA       SUNNY     57  28  33 NW8       30.05S
WASECA         SUNNY     55  27  33 N3        30.07S
ALBERT LEA     SUNNY     57  30  35 CALM      30.05S
$$
MNZ078>079-086>088-094>096-230000-
   Southeast Minnesota

CITY           SKY/WX    TMP DP  RH WIND       PRES   REMARKS
ROCHESTER      MOSUNNY   56  28  34 N14       30.04S
RED WING       MOSUNNY   55  23  28 NE6       30.04R
STANTON        MOSUNNY   58  26  30 N9        30.03S
DODGE CENTER   MOSUNNY   57  19  23 N9        30.04S
WINONA         MOSUNNY   55  27  33 N6        30.03S
AUSTIN         SUNNY     57  27  30 N9        30.05R
PRESTON        SUNNY     56  31  38 N12       30.03S
$$
ABBREVIATIONS USED IN REMARKS
   TC - TEMPERATURES IN CELSIUS
  WCI - WIND CHILL INDEX
   HX - HEAT INDEX
  VSB - VISIBILITY
$$



USA.gov is the U.S. government's official web portal to all federal, state and local government web resources and services.